Location: Oshawa
(43.9000°N, 78.8670°W)
Time: 21:50:28
(UTC-04:00)

PAYLOAD A - Visible Passes

Search period start: 24 April 2015 00:00
Search period end: 04 May 2015 00:00
Orbit: 693 x 832 km, 98.2° (Epoch: 24 April)

Date Brightness Start Highest point End Pass type
(mag) Time Alt. Az. Time Alt. Az. Time Alt. Az.
24 Apr 6.7 20:47:36 10° SW 20:51:05 19° W 20:54:31 10° NW visible
26 Apr 7.2 21:13:56 10° W 21:15:20 11° W 21:16:25 10° WNW visible
29 Apr 6.8 20:58:20 10° WSW 21:01:20 15° W 21:04:10 10° NW visible
